Location: *
(55.5817°S, 142.4781°W)
Time: 06:15:44
(UTC+00:00)

Cosmos 2026 Rocket - Pass Details

Date: 29 April 2025
Orbit: 939 x 999 km, 82.9° (Epoch: 23 May)

Event Time Altitude Azimuth Distance (km) Brightness Sun altitude
Rises 15:26:34 0° 192° (SSW) 3,648 6.8 -12.2°
Reaches altitude 10° 15:29:05 10° 191° (S) 2,696 6.1 -11.8°
Maximum altitude 15:35:15 83° 103° (ESE) 967 4.1 -11.0°
Drops below altitude 10° 15:41:24 10° 13° (NNE) 2,678 6.6 -10.1°
Sets 15:43:53 0° 11° (NNE) 3,622 7.3 -9.8°
